Regional Weather Roundup
Issued by NWS

Home | Current Version | Previous Version | Graphics & Text | Print | Product List | Glossary On
Versions: 1 2 3 4 5 6 7 8 9 10 11 12 13 14 15 16 17 18 19 20 21 22 23 24 25 26 27 28 29 30 31 32 33 34 35 36 37 38 39 40 41 42 43 44 45 46 47 48 49 50
000
ASUS43 KDMX 222007
RWRIA

WEATHER ROUNDUP FOR IOWA
NATIONAL WEATHER SERVICE DES MOINES IA
300 PM CDT MON SEP 22 2014

NOTE: "FAIR" INDICATES FEW OR NO CLOUDS BELOW 12,000 FEET WITH NO
SIGNIFICANT WEATHER AND/OR OBSTRUCTIONS TO VISIBILITY.

* - THESE STATIONS ARE NOT NWS STATIONS...THUS NOT UNDER NWS
QUALITY CONTROL.  THEY ALSO DO NOT REPORT WEATHER SUCH
AS PRECIPITATION OR FOG.

IAZ001>003-012>014-020>022-031>034-043>046-222100-
   NORTHWEST IOWA

CITY           SKY/WX    TMP DP  RH WIND       PRES   REMARKS
CARROLL *      SUNNY     72  46  40 VRB6      30.24F
CHEROKEE *     MOSUNNY   72  50  46 S8        30.23F
DENISON *      SUNNY     70  50  49 VRB3G12   30.23F
LE MARS *      SUNNY     72  50  46 S10       30.22F
ORANGE CITY *  SUNNY     72  46  40 SW8G17    30.23F
SHELDON *      SUNNY     72  48  43 S10       30.21F
SIOUX CITY     MOSUNNY   73  49  42 S8        30.22F
SPENCER        SUNNY     71  47  42 VRB7      30.23F
STORM LAKE *   SUNNY     70  54  56 VRB7G14   30.24F
$$

IAZ055>058-069>071-079>083-090>094-222100-
   SOUTHWEST IOWA

CITY           SKY/WX    TMP DP  RH WIND       PRES   REMARKS
ATLANTIC *     SUNNY     70  46  43 CALM      30.25F
AUDUBON *      SUNNY     72  45  37 S6        30.26F
CLARINDA *     SUNNY     73  48  40 E5        30.26F
COUNCIL BLFS * SUNNY     72  50  46 VRB5G13   30.24F
CRESTON *      SUNNY     70  50  49 VRB3      30.26F
HARLAN  *      SUNNY     72  50  46 SW10      30.28F
LAMONI         SUNNY     71  50  47 CALM      30.27F
RED OAK *      SUNNY     72  48  43 VRB3      30.25F
SHENANDOAH *   SUNNY     73  48  40 S8        30.26F
$$

IAZ047>049-059>061-072>074-084-222100-
   CENTRAL IOWA

CITY           SKY/WX    TMP DP  RH WIND       PRES   REMARKS
AMES           SUNNY     73  50  44 VRB3      30.25F
ANKENY *       SUNNY     70  50  49 VRB5      30.25F
CHARITON *     HAZE      70  48  46 SE6       30.26F VSB 1
DES MOINES     MOSUNNY   72  49  44 CALM      30.25F
GRINNELL*      SUNNY     70  45  40 CALM      30.27F
KNOXVILLE *    SUNNY     70  50  49 CALM      30.25F
MARSHALLTOWN   SUNNY     70  48  45 CALM      30.25F
PELLA *        SUNNY     72  48  43 CALM      30.27F
PERRY *          N/A     73  45  37 CALM      30.24F
$$

IAZ004>006-015-016-023>025-035-036-222100-
   NORTH CENTRAL IOWA

CITY           SKY/WX    TMP DP  RH WIND       PRES   REMARKS
ALGONA *       SUNNY     70  48  46 VRB7      30.24F
CLARION *        N/A     70  48  46 W8        30.24F
ESTHERVILLE    SUNNY     70  49  47 S13       30.23F
FORT DODGE *   SUNNY     70  48  46 CALM      30.25F
MASON CITY     SUNNY     70  48  45 SW8       30.26F
FOREST CITY *    N/A     70  48  46 CALM      30.24
IOWA FALLS *     N/A     72  45  37 W5        30.26F
$$

IAZ007>011-017>019-026>030-037>042-050>054-066-222100-
   NORTHEAST IOWA

CITY           SKY/WX    TMP DP  RH WIND       PRES   REMARKS
CEDAR RAPIDS   SUNNY     69  49  48 VRB6      30.26F
CHARLES CITY * SUNNY     70  46  43 SW7G13    30.25F
CLINTON *      SUNNY     68  43  40 NW5       30.29F
DECORAH *      SUNNY     68  50  52 VRB5G12   30.23F
DUBUQUE        SUNNY     68  44  42 W6        30.26F
MONTICELLO *   SUNNY     70  46  43 N5        30.25F
OELWEIN *      SUNNY     70  46  43 W8G17     30.25F
WATERLOO       SUNNY     70  48  45 W8        30.24F
$$

IAZ064-065-067-068-078-222100-
   EAST CENTRAL IOWA

CITY           SKY/WX    TMP DP  RH WIND       PRES   REMARKS
DAVENPORT      SUNNY     69  40  34 VRB3      30.26F
IOWA CITY      SUNNY     69  48  47 CALM      30.27F
MT. PLEASANT * SUNNY     73  43  33 NW5       30.26F
MUSCATINE *    SUNNY     72  45  37 N6        30.26F
QUAD CITIES    SUNNY     68  43  40 SW3       30.26F
$$

IAZ062-063-075>077-085>089-095>099-222100-
   SOUTHEAST IOWA

CITY           SKY/WX    TMP DP  RH WIND       PRES   REMARKS
BURLINGTON     LGT RAIN  70  45  40 CALM      30.26F
FAIRFIELD *    SUNNY     70  45  40 VRB3      30.26F
FORT MADISON * SUNNY     72  43  35 CALM      30.27F
KEOKUK *       SUNNY     70  50  49 CALM      30.26F
OSKALOOSA *      N/A     72  48  43 SW6       30.26F
CENTERVILLE *    N/A     70  48  46 NE3       30.28F
OTTUMWA        SUNNY     70  49  47 W6        30.26F
WASHINGTON *   SUNNY     72  45  37 W5        30.26F
$$

ABBREVIATIONS USED IN REMARKS
   TC - TEMPERATURES IN CELSIUS
  WCI - WIND CHILL INDEX
   HX - HEAT INDEX
  VSB - VISIBILITY
$$



USA.gov is the U.S. government's official web portal to all federal, state and local government web resources and services.